Volver al catálogo

STARLINK-32325

ActivoComunicacionesVLEO
NORAD 61588·PAYLOAD·🇺🇸 United States

Lanzado Oct 18, 2024 desde Cape Canaveral Space Force Station

Loading…

Próximos Pases (próximas 24 horas)

TLE

ActualizadoSource: CelesTrak SupGP

Época: Sep 15, 2026, 02:26 UTC

1 61588C 24187Q   26258.10187500 -.00015530  00000+0 -45872-3 0  2587
2 61588  53.1579 261.1744 0001387  93.7370 163.2942 15.34405785    13

Sigue STARLINK-32325 en tiempo real con AllMySat

Download on the App Store